Weather History for SVBC - September, 2013

Change the Weather History Date:

Thursday, September 26, 2013

  Actual Average Record
Temperature  
Mean Temperature 85 °F -  
Max Temperature 96 °F 91 °F 98 °F (2002)
Min Temperature 74 °F 73 °F 68 °F (2001)
Cooling Degree Days 20    
Growing Degree Days 35 (Base 50)    
Moisture  
Dew Point 74 °F    
Average Humidity 79    
Maximum Humidity 100    
Minimum Humidity 38    
Precipitation  
Precipitation 0.00 in 0.08 in - ()
Sea Level Pressure  
Sea Level Pressure 29.89 in    
Wind  
Wind Speed 3 mph ()    
Max Wind Speed 23 mph    
Max Gust Speed -    
Visibility 6.6 miles    
Events Thunderstorm    
Averages and records for this station are not official NWS values.
T = Trace of Precipitation, MM = Missing Value Source: Averaged Metar Reports

Daily Weather History Graph

Daily Weather History Graph

Search for Another Location

Airport or City:

Trip Planner

Search our weather history database for the weather conditions in past years. The results will help you decide how hot, cold, wet, or windy it might be!

Date:

Astronomy

Sep. 26, 2013 Rise Set
Actual Time 5:37 AM VET 5:42 PM VET
Civil Twilight 5:16 AM VET 6:03 PM VET
Nautical Twilight 4:52 AM VET 6:27 PM VET
Astronomical Twilight 4:27 AM VET 6:51 PM VET
Moon 11:28 PM VET (9/26) 11:33 AM VET (9/26)
Length of Visible Light 12h 46m
Length of Day
12h 04m
Waning Gibbous, 54% of the Moon is Illuminated
Sep 26
Waning Gibbous
Sep 26
Last Quarter
Oct 4
New
Oct 11
First Quarter
Oct 18
Full

Hourly Weather History & Observations

Time (VET) Temp. Heat Index Dew Point Humidity Pressure Visibility Wind Dir Wind Speed Gust Speed Precip Events Conditions
12:30 AM 77.0 °F - 75.2 °F 94% 29.89 in 6.2 mi Calm Calm - N/A   Partly Cloudy
1:30 AM 77.0 °F - 75.2 °F 94% 29.89 in 6.2 mi Calm Calm - N/A   Partly Cloudy
2:30 AM 75.2 °F - 73.4 °F 94% 29.86 in 6.2 mi Calm Calm - N/A   Partly Cloudy
3:30 AM 75.2 °F - 73.4 °F 94% 29.86 in 6.2 mi Calm Calm - N/A   Partly Cloudy
4:30 AM 75.2 °F - 75.2 °F 100% 29.89 in 6.2 mi Calm Calm - N/A   Scattered Clouds
5:30 AM 75.2 °F - 73.4 °F 94% 29.92 in 6.2 mi Calm Calm - N/A   Scattered Clouds
6:30 AM 77.0 °F - 75.2 °F 94% 29.89 in 6.2 mi Calm Calm - N/A   Scattered Clouds
7:30 AM 79 °F - 75 °F 83% 29.99 in 11 mi Calm Calm - -   Partly Cloudy
7:30 AM 78.8 °F - 75.2 °F 89% 29.92 in 6.2 mi Calm Calm - N/A   Scattered Clouds
8:30 AM 84.2 °F 90.9 °F 73.4 °F 70% 29.92 in 6.2 mi Calm Calm - N/A   Scattered Clouds
9:30 AM 87.8 °F 97.6 °F 75.2 °F 66% 29.95 in 6.2 mi Calm Calm - N/A   Scattered Clouds
10:30 AM 91.4 °F 98.4 °F 71.6 °F 52% 29.89 in 6.2 mi Calm Calm - N/A   Partly Cloudy
11:30 AM 95.0 °F 101.3 °F 69.8 °F 44% 29.86 in 6.2 mi Calm Calm - N/A   Scattered Clouds
12:30 PM 93.2 °F 100.5 °F 71.6 °F 49% 29.83 in 6.2 mi North 17.3 mph - N/A   Scattered Clouds
1:30 PM 96 °F - 73 °F 38% 29.88 in 12 mi North 22.4 mph - -   Partly Cloudy
1:30 PM 95.0 °F 104.5 °F 73.4 °F 49% 29.80 in 6.2 mi North 23.0 mph - N/A   Scattered Clouds
2:30 PM 96.8 °F 107.3 °F 73.4 °F 47% 29.80 in 6.2 mi North 13.8 mph - N/A   Partly Cloudy
3:30 PM 91.4 °F 100.1 °F 73.4 °F 55% 29.80 in 6.2 mi North 11.5 mph - N/A   Scattered Clouds
4:30 PM 78.8 °F - 78.8 °F 100% 29.83 in 5.6 mi West 17.3 mph - N/A   Light Drizzle
5:30 PM 77.0 °F - 77.0 °F 100% 29.86 in 5.6 mi Calm Calm - N/A Thunderstorm Unknown
6:30 PM 78.8 °F - 75.2 °F 89% 29.86 in 6.2 mi Calm Calm - N/A   Scattered Clouds
7:30 PM 78.8 °F - 77.0 °F 94% 29.89 in 6.2 mi Calm Calm - N/A   Scattered Clouds
8:30 PM 78.8 °F - 75.2 °F 89% 29.92 in 6.2 mi Calm Calm - N/A   Scattered Clouds
9:30 PM 77.0 °F - 75.2 °F 94% 29.92 in 6.2 mi Calm Calm - N/A   Partly Cloudy
10:30 PM 77.0 °F - 75.2 °F 94% 29.95 in 6.2 mi Calm Calm - N/A   Partly Cloudy
11:30 PM 77.0 °F - 75.2 °F 94% 29.95 in 6.2 mi Calm Calm - N/A   Partly Cloudy